Weather History for Big Bear City, CA

Change the Weather History Date:

Thursday, December 6, 2012

  Actual Average (KBUO) Record (KBUO)
Temperature  
Mean Temperature 40 °F -  
Max Temperature 51 °F 59 °F 73 °F (2000)
Min Temperature 26 °F 42 °F 33 °F (1998)
Degree Days  
Heating Degree Days 26    
Moisture  
Dew Point 30 °F    
Average Humidity 75    
Maximum Humidity 100    
Minimum Humidity 47    
Precipitation  
Precipitation 0.00 in - - ()
Sea Level Pressure  
Sea Level Pressure 30.08 in    
Wind  
Wind Speed 3 mph (NE)    
Max Wind Speed 12 mph    
Max Gust Speed -    
Visibility 10 miles    
Events      
Averages and records for this station are not official NWS values.
T = Trace of Precipitation, MM = Missing Value Source: NWS Daily Summary

Daily Weather History Graph

Daily Weather History Graph

Search for Another Location

Airport:

Trip Planner

Search our weather history database for the weather conditions in past years. The results will help you decide how hot, cold, wet, or windy it might be!

Date:

Astronomy

Dec. 06, 2012 Rise Set
Actual Time 6:39 AM PST 4:37 PM PST
Civil Twilight 6:12 AM PST 5:05 PM PST
Nautical Twilight 5:41 AM PST 5:36 PM PST
Astronomical Twilight 5:10 AM PST 6:06 PM PST
Moon No Moon Rise 11:50 AM PST (12/6)
Length of Visible Light 10h 52m
Length of Day
9h 57m
Waning Gibbous, 48% of the Moon is Illuminated
Dec 6
Waning Gibbous
Dec 13
New
Dec 19
First Quarter
Dec 28
Full
Jan 4
Last Quarter

Hourly Weather History & Observations

Time (PST) Temp. Windchill Dew Point Humidity Pressure Visibility Wind Dir Wind Speed Gust Speed Precip Events Conditions
12:15 AM 32.0 °F - 28.4 °F 87% 30.14 in 10.0 mi Calm Calm - N/A   Clear
12:35 AM 32.0 °F 28.7 °F 30.2 °F 93% 30.14 in 10.0 mi West 3.5 mph - N/A   Clear
12:55 AM 32.0 °F 27.5 °F 30.2 °F 93% 30.13 in 10.0 mi WSW 4.6 mph - N/A   Clear
1:15 AM 33.8 °F 29.6 °F 30.2 °F 87% 30.13 in 10.0 mi WSW 4.6 mph - N/A   Clear
1:35 AM 32.0 °F 28.7 °F 30.2 °F 93% 30.12 in 10.0 mi West 3.5 mph - N/A   Clear
1:55 AM 32.0 °F 28.7 °F 30.2 °F 93% 30.12 in 10.0 mi West 3.5 mph - N/A   Clear
2:15 AM 32.0 °F 28.7 °F 30.2 °F 93% 30.12 in 10.0 mi West 3.5 mph - N/A   Clear
2:35 AM 32.0 °F - 30.2 °F 93% 30.11 in 10.0 mi Calm Calm - N/A   Clear
2:55 AM 32.0 °F 28.7 °F 30.2 °F 93% 30.10 in 10.0 mi WSW 3.5 mph - N/A   Clear
3:15 AM 32.0 °F 28.7 °F 30.2 °F 93% 30.10 in 10.0 mi WSW 3.5 mph - N/A   Clear
3:35 AM 32.0 °F 28.7 °F 32.0 °F 100% 30.09 in 10.0 mi West 3.5 mph - N/A   Clear
5:35 AM 37.4 °F 33.8 °F 33.8 °F 87% 30.08 in 10.0 mi West 4.6 mph - N/A   Clear
5:55 AM 35.6 °F 32.8 °F 33.8 °F 93% 30.08 in 10.0 mi SW 3.5 mph - N/A   Clear
6:15 AM 33.8 °F - 32.0 °F 93% 30.09 in 10.0 mi Calm Calm - N/A   Clear
6:35 AM 33.8 °F - 32.0 °F 93% 30.09 in 10.0 mi Calm Calm - N/A   Clear
6:55 AM 32.0 °F - 30.2 °F 93% 30.08 in 10.0 mi Calm Calm - N/A   Clear
7:15 AM 32.0 °F - 30.2 °F 93% 30.09 in 10.0 mi Calm Calm - N/A   Clear
7:35 AM 32.0 °F - 30.2 °F 93% 30.09 in 10.0 mi Calm Calm - N/A   Clear
7:55 AM 32.0 °F - 32.0 °F 100% 30.09 in 10.0 mi Calm Calm - N/A   Clear
8:15 AM 35.6 °F - 32.0 °F 87% 30.09 in 10.0 mi Calm Calm - N/A   Clear
8:35 AM 41.0 °F - 33.8 °F 76% 30.10 in 10.0 mi Calm Calm - N/A   Clear
8:55 AM 42.8 °F 41.1 °F 35.6 °F 76% 30.10 in 10.0 mi West 3.5 mph - N/A   Clear
9:15 AM 44.6 °F - 35.6 °F 71% 30.11 in 10.0 mi Calm Calm - N/A   Clear
9:35 AM 46.4 °F 41.5 °F 33.8 °F 62% 30.11 in 10.0 mi ENE 10.4 mph - N/A   Clear
9:55 AM 48.2 °F - 33.8 °F 58% 30.11 in 10.0 mi ENE 9.2 mph - N/A   Clear
10:15 AM 50.0 °F - 33.8 °F 54% 30.11 in 10.0 mi ENE 9.2 mph - N/A   Clear
10:35 AM 50.0 °F - 33.8 °F 54% 30.10 in 10.0 mi NE 5.8 mph - N/A   Clear
10:55 AM 50.0 °F - 32.0 °F 50% 30.10 in 10.0 mi East 8.1 mph - N/A   Clear
11:15 AM 50.0 °F - 32.0 °F 50% 30.08 in 10.0 mi NE 9.2 mph - N/A   Clear
11:35 AM 51.8 °F - 32.0 °F 47% 30.08 in 10.0 mi East 8.1 mph - N/A   Clear
11:55 AM 51.8 °F - 32.0 °F 47% 30.07 in 10.0 mi East 6.9 mph - N/A   Clear
12:15 PM 50.0 °F - 32.0 °F 50% 30.06 in 10.0 mi East 6.9 mph - N/A   Clear
12:35 PM 51.8 °F - 32.0 °F 47% 30.05 in 10.0 mi NE 9.2 mph - N/A   Clear
12:55 PM 51.8 °F - 32.0 °F 47% 30.05 in 10.0 mi ENE 10.4 mph - N/A   Clear
1:15 PM 51.8 °F - 32.0 °F 47% 30.04 in 10.0 mi East 11.5 mph - N/A   Clear
1:35 PM 51.8 °F - 32.0 °F 47% 30.04 in 10.0 mi East 11.5 mph - N/A   Clear
1:55 PM 51.8 °F - 32.0 °F 47% 30.03 in 10.0 mi NE 4.6 mph - N/A   Clear
2:15 PM 50.0 °F - 32.0 °F 50% 30.03 in 10.0 mi ENE 8.1 mph - N/A   Clear
2:35 PM 51.8 °F - 32.0 °F 47% 30.03 in 10.0 mi East 8.1 mph - N/A   Clear
2:55 PM 50.0 °F - 32.0 °F 50% 30.03 in 10.0 mi ENE 8.1 mph - N/A   Clear
3:15 PM 50.0 °F - 32.0 °F 50% 30.03 in 10.0 mi ENE 5.8 mph - N/A   Clear
3:35 PM 50.0 °F - 32.0 °F 50% 30.03 in 10.0 mi East 5.8 mph - N/A   Clear
3:55 PM 48.2 °F - 32.0 °F 54% 30.03 in 10.0 mi ENE 4.6 mph - N/A   Clear
4:15 PM 46.4 °F 45.2 °F 32.0 °F 57% 30.04 in 10.0 mi ENE 3.5 mph - N/A   Clear
4:35 PM 44.6 °F - 32.0 °F 61% 30.03 in 10.0 mi Calm Calm - N/A   Clear
4:55 PM 42.8 °F - 32.0 °F 66% 30.04 in 10.0 mi Calm Calm - N/A   Clear
5:15 PM 41.0 °F - 32.0 °F 70% 30.04 in 10.0 mi Calm Calm - N/A   Clear
5:35 PM 37.4 °F - 32.0 °F 81% 30.04 in 10.0 mi Calm Calm - N/A   Clear
5:55 PM 37.4 °F - 30.2 °F 75% 30.05 in 10.0 mi Calm Calm - N/A   Clear
6:35 PM 33.8 °F - 30.2 °F 87% 30.07 in 10.0 mi Calm Calm - N/A   Clear
6:55 PM 33.8 °F - 28.4 °F 81% 30.08 in 10.0 mi Calm Calm - N/A   Clear
7:15 PM 32.0 °F - 28.4 °F 87% 30.08 in 10.0 mi Calm Calm - N/A   Clear
7:35 PM 32.0 °F - 28.4 °F 87% 30.08 in 10.0 mi Calm Calm - N/A   Clear
7:55 PM 32.0 °F - 26.6 °F 80% 30.08 in 10.0 mi Calm Calm - N/A   Clear
8:15 PM 32.0 °F - 26.6 °F 80% 30.08 in 10.0 mi Calm Calm - N/A   Clear
8:35 PM 30.2 °F - 26.6 °F 86% 30.09 in 10.0 mi Calm Calm - N/A   Clear
8:55 PM 30.2 °F - 26.6 °F 86% 30.09 in 10.0 mi Calm Calm - N/A   Clear
9:15 PM 30.2 °F - 26.6 °F 86% 30.09 in 10.0 mi Calm Calm - N/A   Clear
9:35 PM 30.2 °F - 26.6 °F 86% 30.09 in 7.0 mi Calm Calm - N/A   Clear
9:55 PM 28.4 °F - 26.6 °F 93% 30.09 in 10.0 mi Calm Calm - N/A   Clear
10:15 PM 28.4 °F - 24.8 °F 86% 30.09 in 10.0 mi Calm Calm - N/A   Clear
10:35 PM 28.4 °F - 24.8 °F 86% 30.10 in 10.0 mi Calm Calm - N/A   Clear
10:55 PM 28.4 °F - 23.0 °F 80% 30.10 in 10.0 mi Calm Calm - N/A   Clear
11:15 PM 28.4 °F - 23.0 °F 80% 30.09 in 10.0 mi Calm Calm - N/A   Clear
11:35 PM 28.4 °F - 23.0 °F 80% 30.09 in 10.0 mi Calm Calm - N/A   Clear
11:55 PM 26.6 °F - 23.0 °F 86% 30.10 in 10.0 mi Calm Calm - N/A   Clear